FW6744 Weather Reports


Display with metric or nautical units.
time (UTC)temp
F
wind
direction
speed
MPH
gust
MPH
rain 1hr
in
rain 24hr
in
rain mn
in
humidity
%
barometer
mb
20260831101746 74 210 0.0 0.0 0.00 0.00 0.00 89 1014.6
20260831101512 74 210 0.0 0.0 0.00 0.00 0.00 89 1014.5
20260831100743 74 210 0.0 0.0 0.00 0.00 0.00 89 1014.4
20260831100458 74 210 0.0 0.0 0.00 0.00 0.00 89 1014.3
20260831095731 74 210 0.0 0.0 0.00 0.00 0.00 89 1014.4
20260831095452 74 210 0.0 0.0 0.00 0.00 0.00 88 1014.4
20260831094718 74 210 0.0 0.0 0.00 0.00 0.00 88 1014.4
20260831094434 75 210 0.0 0.0 0.00 0.00 0.00 88 1014.4
20260831093707 75 210 0.0 0.0 0.00 0.00 0.00 88 1014.4
20260831093201 75 210 0.0 0.0 0.00 0.00 0.00 87 1014.4
20260831092655 75 210 0.0 2.0 0.00 0.00 0.00 87 1014.4
20260831092148 75 210 0.0 2.0 0.00 0.00 0.00 88 1014.4
20260831091643 75 198 0.0 0.0 0.00 0.00 0.00 88 1014.4
20260831091137 75 198 0.0 0.0 0.00 0.00 0.00 88 1014.4
20260831090630 75 198 0.0 0.0 0.00 0.00 0.00 88 1014.5
20260831090125 75 198 0.0 0.0 0.00 0.00 0.00 88 1014.4
20260831085619 75 198 0.0 0.0 0.00 0.00 0.00 87 1014.4
20260831085113 75 198 0.0 0.0 0.00 0.00 0.00 87 1014.4
20260831084928 75 198 0.0 0.0 0.00 0.00 0.00 87 1014.4
20260831084836 76 198 0.0 0.0 0.00 0.00 0.00 87 1014.4
20260831083555 76 198 0.0 0.0 0.00 0.00 0.00 87 1014.4
20260831083049 76 198 0.0 0.0 0.00 0.00 0.00 86 1014.4
20260831082543 76 198 0.0 0.0 0.00 0.00 0.00 86 1014.4
20260831082037 76 198 0.0 0.0 0.00 0.00 0.00 86 1014.4
20260831081531 76 198 0.0 0.0 0.00 0.00 0.00 86 1014.4
20260831081025 76 198 0.0 0.0 0.00 0.00 0.00 85 1014.4
20260831080519 76 198 0.0 0.0 0.00 0.00 0.00 85 1014.4
20260831080241 76 198 0.0 0.0 0.00 0.00 0.00 85 1014.3
20260831075507 76 198 0.0 0.0 0.00 0.00 0.00 84 1014.3
20260831075000 76 198 0.0 0.0 0.00 0.00 0.00 84 1014.3
20260831074454 76 198 0.0 0.0 0.00 0.00 0.00 84 1014.3
20260831073949 76 198 0.0 0.0 0.00 0.00 0.00 84 1014.3
20260831073708 77 198 0.0 0.0 0.00 0.00 0.00 84 1014.3
20260831072937 77 198 0.0 1.0 0.00 0.00 0.00 83 1014.4
20260831072431 77 198 0.0 1.0 0.00 0.00 0.00 83 1014.4
20260831071924 77 146 0.0 1.0 0.00 0.00 0.00 83 1014.3
20260831071418 77 146 0.0 1.0 0.00 0.00 0.00 83 1014.4
20260831070913 77 203 0.0 1.0 0.00 0.00 0.00 82 1014.5
20260831070407 77 202 0.0 3.0 0.00 0.00 0.00 82 1014.6
20260831065900 77 322 0.0 3.0 0.00 0.00 0.00 82 1014.6
20260831065354 77 191 0.0 4.0 0.00 0.00 0.00 82 1014.5
20260831064852 77 205 0.0 4.0 0.00 0.00 0.00 83 1014.5
20260831064342 77 217 0.0 1.0 0.00 0.00 0.00 83 1014.5
20260831063837 77 199 0.0 2.0 0.00 0.00 0.00 84 1014.5
20260831063331 76 169 0.0 2.0 0.00 0.00 0.00 84 1014.5
20260831063050 76 149 0.0 3.0 0.00 0.00 0.00 85 1014.6
20260831062539 76 247 0.0 3.0 0.00 0.00 0.00 85 1014.6
20260831061812 76 208 0.0 1.0 0.00 0.00 0.00 86 1014.6
20260831061530 76 208 0.0 1.0 0.00 0.00 0.00 86 1014.5
20260831061041 76 208 0.0 1.0 0.00 0.00 0.00 87 1014.7
20260831060310 75 13 0.0 1.0 0.00 0.00 0.00 87 1014.8
20260831055808 76 13 0.0 0.0 0.00 0.00 0.00 87 1014.8
20260831055307 76 13 0.0 0.0 0.00 0.00 0.00 87 1014.8
20260831054807 76 13 0.0 0.0 0.00 0.00 0.00 86 1014.8
20260831054308 76 13 0.0 0.0 0.00 0.00 0.00 86 1014.9
20260831053806 76 13 0.0 0.0 0.00 0.00 0.00 86 1014.9
20260831053307 76 13 0.0 0.0 0.00 0.00 0.00 85 1014.9
20260831052802 77 13 0.0 0.0 0.00 0.00 0.00 85 1015.1
20260831052306 77 13 0.0 0.0 0.00 0.00 0.00 85 1015.0
20260831051257 77 13 0.0 0.0 0.00 0.00 0.00 84 1015.2
20260831051016 77 13 0.0 0.0 0.00 0.00 0.00 84 1015.2
20260831050254 78 13 0.0 0.0 0.00 0.00 0.00 83 1015.2
20260831045752 78 13 0.0 0.0 0.00 0.00 0.00 83 1015.2
20260831045250 78 13 0.0 0.0 0.00 0.00 0.00 83 1015.2
20260831044749 78 13 0.0 0.0 0.00 0.00 0.00 83 1015.2
20260831044246 78 13 0.0 0.0 0.00 0.00 0.00 83 1015.2
20260831044226 78 13 0.0 0.0 0.00 0.00 0.00 83 1015.2
20260831043511 78 13 0.0 0.0 0.00 0.00 0.00 83 1015.2
20260831042738 78 13 0.0 0.0 0.00 0.00 0.00 83 1015.3
20260831042232 78 13 0.0 0.0 0.00 0.00 0.00 83 1015.3
20260831041726 78 13 0.0 0.0 0.00 0.00 0.00 83 1015.3
20260831041220 78 351 0.0 0.0 0.00 0.00 0.00 83 1015.3
20260831040713 78 275 0.0 0.0 0.00 0.00 0.00 83 1015.3
20260831040208 78 275 0.0 0.0 0.00 0.00 0.00 84 1015.3
20260831035924 78 274 0.0 0.0 0.00 0.00 0.00 84 1015.3
20260831035156 78 275 0.0 0.0 0.00 0.00 0.00 84 1015.3
20260831034650 78 274 0.0 0.0 0.00 0.00 0.00 84 1015.3
20260831034144 78 274 0.0 0.0 0.00 0.00 0.00 84 1015.4
20260831033638 78 274 0.0 0.0 0.00 0.00 0.00 84 1015.4
20260831033132 78 275 0.0 0.0 0.00 0.00 0.00 84 1015.5
20260831032626 77 275 0.0 0.0 0.00 0.00 0.00 84 1015.4
20260831032347 77 274 0.0 0.0 0.00 0.00 0.00 85 1015.5
20260831032106 77 275 0.0 0.0 0.00 0.00 0.00 86 1015.5
20260831031109 77 274 0.0 0.0 0.00 0.00 0.00 86 1015.5
20260831030602 77 274 0.0 0.0 0.00 0.00 0.00 86 1015.5
20260831030056 77 274 0.0 0.0 0.00 0.00 0.00 86 1015.5
20260831025550 77 274 0.0 1.0 0.00 0.00 0.00 86 1015.6
20260831025045 77 274 0.0 1.0 0.00 0.00 0.00 86 1015.5
20260831024538 77 289 0.0 0.0 0.00 0.00 0.00 86 1015.6
20260831024032 77 290 0.0 0.0 0.00 0.00 0.00 86 1015.5
20260831023527 77 290 0.0 0.0 0.00 0.00 0.00 86 1015.5
20260831023245 77 290 0.0 0.0 0.00 0.00 0.00 86 1015.5
20260831022515 77 290 0.0 0.0 0.00 0.00 0.00 85 1015.6
20260831022008 77 290 0.0 0.0 0.00 0.00 0.00 85 1015.6
20260831021502 77 290 0.0 0.0 0.00 0.00 0.00 85 1015.5
20260831020956 77 290 0.0 0.0 0.00 0.00 0.00 84 1015.6
20260831020451 77 290 0.0 0.0 0.00 0.00 0.00 84 1015.5
20260831015944 77 289 0.0 0.0 0.00 0.00 0.00 84 1015.6
20260831015438 77 290 0.0 0.0 0.00 0.00 0.00 84 1015.5
20260831015011 77 290 0.0 0.0 0.00 0.00 0.00 83 1015.6
20260831014650 77 290 0.0 0.0 0.00 0.00 0.00 83 1015.5
20260831014146 77 290 0.0 0.0 0.00 0.00 0.00 82 1015.6
20260831013414 77 290 0.0 0.0 0.00 0.00 0.00 82 1015.6
20260831013130 78 289 0.0 0.0 0.00 0.00 0.00 82 1015.6
20260831012402 78 290 0.0 0.0 0.00 0.00 0.00 81 1015.6
20260831011856 78 289 0.0 0.0 0.00 0.00 0.00 81 1015.7
20260831011350 78 289 0.0 0.0 0.00 0.00 0.00 81 1015.7
20260831010844 78 289 0.0 0.0 0.00 0.00 0.00 80 1015.7
20260831010338 78 290 0.0 0.0 0.00 0.00 0.00 80 1015.6
20260831005833 79 290 0.0 0.0 0.00 0.00 0.00 80 1015.5
20260831005326 79 290 0.0 0.0 0.00 0.00 0.00 79 1015.4
20260831004820 79 290 0.0 0.0 0.00 0.00 0.00 78 1015.3
20260831004314 79 290 0.0 0.0 0.00 0.00 0.00 78 1015.2
20260831004033 79 290 0.0 0.0 0.00 0.00 0.00 77 1015.1
20260831003301 80 290 0.0 0.0 0.00 0.00 0.00 77 1014.9
20260831002756 80 290 0.0 0.0 0.00 0.00 0.00 77 1014.9
20260831002250 80 290 0.0 0.0 0.00 0.00 0.00 76 1014.8
20260831002236 80 289 0.0 0.0 0.00 0.00 0.00 75 1014.8
20260831001502 81 290 0.0 0.0 0.00 0.00 0.00 74 1014.7
20260831000957 81 289 0.0 0.0 0.00 0.00 0.00 74 1014.7
20260831000447 81 290 0.0 0.0 0.00 0.00 0.00 73 1014.7
20260830235723 82 289 0.0 0.0 0.00 0.00 0.00 72 1014.8
20260830235223 82 289 0.0 0.0 0.00 0.00 0.00 72 1014.8
20260830234723 83 289 0.0 0.0 0.00 0.00 0.00 71 1014.8
20260830234224 83 289 0.0 0.0 0.00 0.00 0.00 70 1014.8
20260830233723 84 290 0.0 0.0 0.00 0.00 0.00 69 1014.8
20260830233223 85 289 0.0 0.0 0.00 0.00 0.00 67 1014.8
20260830232722 85 289 0.0 1.0 0.00 0.00 0.00 67 1014.9
20260830232220 85 289 0.0 1.0 0.00 0.00 0.00 65 1014.9
20260830231718 86 253 0.0 0.0 0.00 0.00 0.00 65 1014.9
20260830231216 86 253 0.0 0.0 0.00 0.00 0.00 65 1014.9
20260830230715 87 253 0.0 0.0 0.00 0.00 0.00 65 1014.9
20260830230216 87 253 0.0 0.0 0.00 0.00 0.00 65 1014.8
20260830225712 87 254 0.0 1.0 0.00 0.00 0.00 64 1014.7
20260830225434 87 253 0.0 1.0 0.00 0.00 0.00 62 1014.8
20260830224714 88 188 0.0 0.0 0.00 0.00 0.00 62 1014.8
20260830224213 88 172 0.0 0.0 0.00 0.00 0.00 61 1014.7
20260830223713 89 172 0.0 0.0 0.00 0.00 0.00 61 1014.7
20260830223211 89 172 0.0 1.0 0.00 0.00 0.00 61 1014.8
20260830222712 89 172 0.0 1.0 0.00 0.00 0.00 61 1014.7
20260830222209 89 140 0.0 2.0 0.00 0.00 0.00 60 1014.8
20260830221710 90 122 0.0 2.0 0.00 0.00 0.00 59 1014.7
20260830221210 91 141 0.0 0.0 0.00 0.00 0.00 59 1014.7
20260830220936 91 141 0.0 0.0 0.00 0.00 0.00 59 1014.8
20260830220209 92 34 0.0 0.0 0.00 0.00 0.00 59 1014.8
20260830215931 92 63 0.0 0.0 0.00 0.00 0.00 57 1014.8
20260830215210 92 199 0.0 1.0 0.00 0.00 0.00 56 1014.7
20260830214710 93 86 0.0 1.0 0.00 0.00 0.00 55 1014.7
20260830214208 94 349 0.0 1.0 0.00 0.00 0.00 54 1014.7
20260830213710 94 136 0.0 1.0 0.00 0.00 0.00 53 1014.6
20260830213209 95 119 0.0 1.0 0.00 0.00 0.00 53 1014.6
20260830212935 96 118 0.0 1.0 0.00 0.00 0.00 52 1014.5
20260830212209 96 99 0.0 2.0 0.00 0.00 0.00 52 1014.6
20260830211710 96 279 0.0 2.0 0.00 0.00 0.00 52 1014.5
20260830211208 96 236 0.0 1.0 0.00 0.00 0.00 53 1014.5
20260830210708 95 215 0.0 2.0 0.00 0.00 0.00 52 1014.5
20260830210430 95 95 0.0 4.0 0.00 0.00 0.00 52 1014.5
20260830205708 95 18 0.0 4.0 0.00 0.00 0.00 53 1014.5
20260830205210 95 39 0.0 2.0 0.00 0.00 0.00 54 1014.5
20260830204710 94 221 0.0 2.0 0.00 0.00 0.00 54 1014.7
20260830204210 94 153 1.0 2.0 0.00 0.00 0.00 53 1014.6
20260830203706 94 46 1.0 4.0 0.00 0.00 0.00 53 1014.7
20260830203208 94 184 1.0 4.0 0.00 0.00 0.00 53 1014.8
20260830202707 95 94 0.0 2.0 0.00 0.00 0.00 54 1014.8
20260830202206 95 100 0.0 1.0 0.00 0.00 0.00 55 1014.8
20260830201922 95 332 0.0 1.0 0.00 0.00 0.00 53 1015.0
20260830201208 95 321 0.0 2.0 0.00 0.00 0.00 52 1015.0
20260830200702 94 179 0.0 2.0 0.00 0.00 0.00 53 1015.0
20260830200155 94 205 0.0 2.0 0.00 0.00 0.00 55 1015.1
20260830195916 94 96 0.0 4.0 0.00 0.00 0.00 55 1015.2
20260830195143 94 182 0.0 4.0 0.00 0.00 0.00 56 1015.3
20260830194638 94 161 0.0 3.0 0.00 0.00 0.00 56 1015.4
20260830194132 94 91 0.0 3.0 0.00 0.00 0.00 55 1015.4
20260830193847 94 210 0.0 2.0 0.00 0.00 0.00 55 1015.6
20260830193120 93 201 1.0 3.0 0.00 0.00 0.00 57 1015.7
20260830192613 93 179 0.0 3.0 0.00 0.00 0.00 57 1015.9
20260830192108 93 92 0.0 3.0 0.00 0.00 0.00 56 1015.9
20260830191826 94 91 0.0 3.0 0.00 0.00 0.00 57 1016.0
20260830191056 94 183 0.0 2.0 0.00 0.00 0.00 57 1016.0
20260830190814 93 108 0.0 1.0 0.00 0.00 0.00 58 1016.1
20260830190044 92 217 0.0 4.0 0.00 0.00 0.00 59 1016.1
20260830185757 91 143 0.0 4.0 0.00 0.00 0.00 59 1016.3
20260830185251 91 72 0.0 3.0 0.00 0.00 0.00 60 1016.3
20260830184525 92 95 1.0 5.0 0.00 0.00 0.00 57 1016.3
20260830184019 93 148 0.0 5.0 0.00 0.00 0.00 58 1016.4
20260830183513 92 69 0.0 4.0 0.00 0.00 0.00 59 1016.5
20260830183008 92 32 1.0 4.0 0.00 0.00 0.00 58 1016.6
20260830182722 92 137 0.0 3.0 0.00 0.00 0.00 59 1016.7
20260830181956 92 124 0.0 3.0 0.00 0.00 0.00 60 1016.9
20260830181450 91 252 0.0 2.0 0.00 0.00 0.00 62 1016.8
20260830180943 91 113 0.0 2.0 0.00 0.00 0.00 61 1017.0
20260830180438 91 102 1.0 4.0 0.00 0.00 0.00 61 1017.2
20260830180157 91 167 0.0 4.0 0.00 0.00 0.00 61 1017.2
20260830175426 91 154 0.0 3.0 0.00 0.00 0.00 62 1017.2
20260830175139 90 116 0.0 3.0 0.00 0.00 0.00 63 1017.3
20260830174900 89 173 0.0 3.0 0.00 0.00 0.00 65 1017.2
20260830173908 89 68 1.0 4.0 0.00 0.00 0.00 65 1017.3
20260830173401 89 53 1.0 4.0 0.00 0.00 0.00 62 1017.4
20260830172856 90 51 0.0 2.0 0.00 0.00 0.00 62 1017.4
20260830172350 90 274 0.0 1.0 0.00 0.00 0.00 63 1017.4
20260830171844 89 253 0.0 1.0 0.00 0.00 0.00 62 1017.5
20260830171337 89 117 0.0 1.0 0.00 0.00 0.00 65 1017.6
20260830170832 88 38 0.0 1.0 0.00 0.00 0.00 66 1017.6
20260830170545 88 89 0.0 1.0 0.00 0.00 0.00 65 1017.7
20260830165820 88 338 0.0 3.0 0.00 0.00 0.00 65 1017.7
20260830165313 87 11 0.0 3.0 0.00 0.00 0.00 65 1017.8
20260830164808 87 225 1.0 3.0 0.00 0.00 0.00 66 1017.7
20260830164521 87 95 1.0 3.0 0.00 0.00 0.00 67 1017.9
20260830163756 87 134 0.0 3.0 0.00 0.00 0.00 67 1017.8
20260830163250 87 349 0.0 2.0 0.00 0.00 0.00 70 1017.9
20260830163006 85 232 0.0 2.0 0.00 0.00 0.00 70 1018.0
20260830162459 85 268 0.0 2.0 0.00 0.00 0.00 70 1018.0
20260830161954 84 200 0.0 2.0 0.00 0.00 0.00 71 1018.0
20260830161226 84 225 0.0 2.0 0.00 0.00 0.00 73 1018.0
20260830160720 83 191 0.0 4.0 0.00 0.00 0.00 73 1018.1
20260830160214 83 215 0.0 5.0 0.00 0.00 0.00 76 1018.3
20260830155708 83 235 0.0 5.0 0.00 0.00 0.00 75 1018.3
20260830155201 83 58 0.0 2.0 0.00 0.00 0.00 75 1018.4
20260830154656 82 199 0.0 3.0 0.00 0.00 0.00 76 1018.3
20260830154150 82 34 0.0 3.0 0.00 0.00 0.00 77 1018.3
20260830153644 81 43 0.0 3.0 0.00 0.00 0.00 78 1018.4
20260830153138 81 32 1.0 3.0 0.00 0.00 0.00 78 1018.5
20260830152859 81 169 1.0 3.0 0.00 0.00 0.00 77 1018.4
20260830152126 81 219 0.0 3.0 0.00 0.00 0.00 78 1018.4
20260830151617 81 245 0.0 3.0 0.00 0.00 0.00 79 1018.5
20260830151111 81 118 0.0 2.0 0.00 0.00 0.00 80 1018.5
20260830150605 80 25 0.0 2.0 0.00 0.00 0.00 81 1018.5
20260830150059 80 161 0.0 2.0 0.00 0.00 0.00 82 1018.4
20260830145054 79 7 0.0 2.0 0.00 0.00 0.00 83 1018.5
20260830144553 78 35 0.0 1.0 0.00 0.00 0.00 84 1018.5
20260830144053 78 162 0.0 1.0 0.00 0.00 0.00 84 1018.5
20260830143549 78 146 0.0 1.0 0.00 0.00 0.00 84 1018.5
20260830143311 78 146 0.0 2.0 0.00 0.00 0.00 85 1018.6
20260830142544 78 188 0.0 2.0 0.00 0.00 0.00 86 1018.5
20260830142045 77 8 0.0 1.0 0.00 0.00 0.00 87 1018.6
20260830141544 77 257 0.0 0.0 0.00 0.00 0.00 89 1018.6
20260830141042 77 257 0.0 0.0 0.00 0.00 0.00 90 1018.6
20260830140540 76 258 0.0 0.0 0.00 0.00 0.00 89 1018.6
20260830140041 76 149 0.0 0.0 0.00 0.00 0.00 90 1018.7
20260830135541 76 148 0.0 0.0 0.00 0.00 0.00 90 1018.7
20260830135037 76 148 0.0 0.0 0.00 0.00 0.00 90 1018.8
20260830134538 76 148 0.0 0.0 0.00 0.00 0.00 90 1018.9
20260830134038 76 148 0.0 0.0 0.00 0.00 0.00 90 1019.0
20260830133537 76 148 0.0 1.0 0.00 0.00 0.00 91 1019.1
20260830133033 76 224 0.0 1.0 0.00 0.00 0.00 91 1019.3
20260830132535 76 212 0.0 1.0 0.00 0.00 0.00 92 1019.2
20260830132031 76 201 0.0 1.0 0.00 0.00 0.00 93 1019.2
20260830131531 75 51 0.0 1.0 0.00 0.00 0.00 93 1019.3
20260830131259 75 284 0.0 1.0 0.00 0.00 0.00 94 1019.3
20260830130530 75 284 0.0 1.0 0.00 0.00 0.00 94 1019.3
20260830130030 75 284 0.0 1.0 0.00 0.00 0.00 95 1019.4
20260830125530 74 2 0.0 0.0 0.00 0.00 0.00 95 1019.4
20260830125030 74 2 0.0 0.0 0.00 0.00 0.00 96 1019.5
20260830124531 74 2 0.0 1.0 0.00 0.00 0.00 96 1019.5
20260830124031 74 2 0.0 1.0 0.00 0.00 0.00 96 1019.6
20260830123751 74 1 0.0 1.0 0.00 0.00 0.00 97 1019.6
20260830123030 73 1 0.0 1.0 0.00 0.00 0.00 97 1019.6
20260830122531 73 1 0.0 0.0 0.00 0.00 0.00 97 1019.6
20260830122030 73 1 0.0 1.0 0.00 0.00 0.00 97 1019.5
20260830121529 73 1 0.0 1.0 0.00 0.00 0.00 97 1019.5
20260830121030 73 2 0.0 0.0 0.00 0.00 0.00 97 1019.4
20260830120530 73 2 0.0 0.0 0.00 0.00 0.00 97 1019.4
20260830120029 72 2 0.0 0.0 0.00 0.00 0.00 97 1019.4
20260830115754 72 2 0.0 0.0 0.00 0.00 0.00 97 1019.4
20260830115030 72 2 0.0 0.0 0.00 0.00 0.00 97 1019.4
20260830114529 72 2 0.0 0.0 0.00 0.00 0.00 97 1019.3
20260830114031 72 2 0.0 0.0 0.00 0.00 0.00 97 1019.3
20260830113531 71 2 0.0 0.0 0.00 0.00 0.00 97 1019.3
20260830113030 71 2 0.0 0.0 0.00 0.00 0.00 97 1019.3
20260830112530 71 2 0.0 0.0 0.00 0.00 0.00 97 1019.3
20260830112031 71 2 0.0 0.0 0.00 0.00 0.00 97 1019.3
20260830111528 71 2 0.0 0.0 0.00 0.00 0.00 97 1019.3
20260830111246 71 2 0.0 0.0 0.00 0.00 0.00 97 1019.3
20260830110520 71 2 0.0 0.0 0.00 0.00 0.00 97 1019.1
20260830110017 71 2 0.0 0.0 0.00 0.00 0.00 97 1019.1
20260830105518 71 2 0.0 0.0 0.00 0.00 0.00 97 1019.1
20260830105018 71 2 0.0 0.0 0.00 0.00 0.00 97 1019.1
20260830104519 70 2 0.0 0.0 0.00 0.00 0.00 97 1019.0
20260830104240 70 2 0.0 0.0 0.00 0.00 0.00 97 1018.9
20260830103516 70 2 0.0 0.0 0.00 0.00 0.00 97 1019.0
20260830103015 70 2 0.0 0.0 0.00 0.00 0.00 97 1018.9
20260830102953 70 2 0.0 0.0 0.00 0.00 0.00 97 1018.8
20260830102015 70 2 0.0 0.0 0.00 0.00 0.00 97 1018.8